Simultaneous Nadir Overpasses (SNOs) Predictions

Prediction of SNOs between GOES-16 and AQUA Satellite Orbit:

Table of predicted SNOs for the next 14.0 days since TLE Epoch: 11/16/2019
Index Date Time (GOES-16) GOES-16 Lat,Lon AQUA Lat,Lon Distance(km) Time Diff (sec)
1 11/16/2019 18:22:59 -0.02, -75.20 0.73, -71.68 401.01 80
2 11/17/2019 06:44:15 0.01, -75.20 0.37, -76.83 186.44 80
3 11/19/2019 06:29:24 -0.01, -75.20 -0.28, -73.88 149.76 80
4 11/19/2019 18:50:48 0.01, -75.21 -0.79, -79.08 439.52 80
5 11/21/2019 06:17:13 -0.02, -75.21 -0.94, -70.93 486.85 80
6 11/21/2019 18:38:36 0.01, -75.22 -0.19, -76.11 102.15 80
7 11/23/2019 18:26:25 0.01, -75.24 0.48, -73.16 236.11 80
8 11/24/2019 06:50:21 -0.01, -75.24 0.63, -78.32 350.23 80
9 11/26/2019 06:38:09 0.00, -75.26 0.02, -75.36 11.27 80
10 11/28/2019 06:23:17 0.00, -75.28 -0.60, -72.40 327.99 80
11 11/28/2019 18:47:20 -0.01, -75.29 -0.52, -77.58 260.75 80




NCC Satellite Simultaneous Nadir Overpasses (SNOs) Prediction Service
